CAPE
2 4 4 3 3 3 2 3 2 2 3 1 2 0 1 0 0 0 0 0 0 0 0 0 0 0 0 0 0 0 0 0 0 0 0 0 0 0 0 0 0 0 0 0 0 0 0
0 0 0 1 2 2 3 3 3 3 2 2 0 0 0 0 0 0 0 0 0 0 0 0 0 0 0 0 0 0 0 0 0 0 0 0 0 0 0 0 0 0 0 0 0 0 0
0 0 0 0 0 1 1 2 2 3 2 1 0 0 0 0 0 0 0 0 0 0 0 0 0 0 0 0 0 0 0 0 0 0 0 0 0 0 0 0 0 0 0 0 0 0 0
0 0 0 0 0 1 1 1 1 2 1 0 0 0 0 0 0 0 0 0 0 0 0 0 0 0 0 0 0 0 0 0 0 0 0 0 0 0 0 0 0 0 0 0 0 0 0
0 0 0 0 1 1 1 1 2 2 1 0 0 0 0 0 0 0 0 0 0 0 0 0 0 0 0 0 0 0 0 0 0 0 0 0 0 0 0 0 0 0 0 0 0 0 0
0 0 0 0 0 1 1 2 2 1 0 0 0 0 0 0 0 0 0 0 0 0 0 0 0 0 0 0 0 0 0 0 0 0 0 0 0 0 0 0 0 0 0 0 0 0 0
0 0 0 0 0 0 0 0 1 0 0 0 0 0 0 0 0 0 0 0 0 0 0 0 0 0 0 0 0 0 0 0 0 0 0 0 0 0 0 0 0 0 0 0 0 0 0
0 0 0 0 0 0 0 0 0 0 0 0 0 0 0 0 0 0 0 0 0 0 0 0 0 0 0 0 0 0 0 0 0 0 0 0 0 0 0 0 0 0 0 0 0 0 0
0 0 0 0 0 0 0 0 0 0 0 0 0 0 0 0 0 0 0 0 0 0 0 0 0 0 0 0 0 0 0 0 0 0 0 0 0 0 0 0 0 0 0 0 0 0 0
0 0 0 0 0 0 0 0 0 0 0 0 0 0 0 0 0 0 0 0 0 0 0 0 0 0 0 0 0 0 0 0 0 0 0 0 0 0 0 0 0 0 0 0 0 0 0
0 0 0 0 0 0 0 0 0 0 0 0 0 0 0 0 0 0 0 0 0 0 0 0 0 0 0 0 0 0 0 0 0 0 0 0 0 0 0 0 0 0 0 0 0 0 0
0 0 0 0 0 0 0 0 0 0 0 0 0 0 0 0 0 0 0 0 0 0 0 0 0 0 0 0 0 0 0 0 0 0 0 0 0 0 0 0 0 0 0 0 0 0 0
0 0 0 0 0 0 0 0 0 0 0 0 0 0 0 0 0 0 0 0 0 0 0 0 0 0 0 0 0 0 0 0 0 0 0 0 0 0 0 0 0 0 0 0 0 0 0
0 0 0 0 0 0 0 0 0 0 0 0 0 0 0 0 0 0 0 0 0 0 0 0 0 0 0 0 0 0 0 0 0 0 0 0 0 0 0 0 0 0 0 0 0 0 0
0 0 0 0 0 0 0 0 0 0 0 0 0 0 0 0 0 0 0 0 0 0 0 0 0 0 0 0 0 0 0 0 0 0 0 0 0 0 0 0 0 0 0 0 0 0 0
0 0 0 0 0 0 0 0 0 0 0 0 0 0 0 0 0 0 0 0 0 0 0 0 0 0 0 0 0 0 0 0 0 0 0 0 0 0 0 0 0 0 0 0 0 0 0
0 0 0 0 0 0 0 0 0 0 0 0 0 0 0 0 0 0 0 0 0 0 0 0 0 0 0 0 0 0 0 0 0 0 0 0 0 0 0 0 0 0 0 0 0 0 0
3 0 0 0 0 0 0 0 0 0 0 0 0 0 0 0 0 0 0 0 0 0 0 0 0 0 0 0 0 0 0 0 0 0 0 0 0 0 0 0 0 0 0 0 0 0 0
5 1 1 0 0 0 0 0 0 0 0 0 0 0 0 0 0 0 0 0 0 0 0 0 0 0 0 0 0 0 0 0 0 0 0 0 0 0 0 0 0 0 0 0 0 0 0
6 2 2 0 0 0 0 0 0 0 0 0 0 0 0 0 0 0 0 0 0 0 0 0 0 0 0 0 0 0 0 0 0 0 0 0 0 0 0 0 0 0 0 0 0 0 0
6 3 5 2 0 0 0 0 0 0 0 0 0 0 0 0 0 0 0 0 0 0 0 0 0 0 0 0 0 0 0 0 0 0 0 0 0 0 0 0 0 0 0 0 0 0 0
7 9 6 2 0 0 0 0 0 0 0 0 0 0 0 0 0 0 0 0 0 0 0 0 0 0 0 0 0 0 0 0 0 0 0 0 0 0 0 0 0 0 0 0 0 0 0
8 7 9 5 2 0 0 0 0 0 0 0 0 0 0 0 0 0 0 0 0 0 0 0 0 0 0 0 0 0 0 0 0 0 0 0 0 0 0 0 0 0 0 0 0 0 0
6 9 10 8 4 4 0 0 0 0 0 0 0 0 0 0 0 0 0 0 0 0 0 0 0 0 0 0 0 0 0 0 0 0 0 0 0 0 0 0 0 0 0 0 0 0 0
10 10 10 9 7 3 0 0 0 0 0 0 0 0 0 0 0 0 0 0 0 0 0 0 0 0 0 0 0 0 0 0 0 0 0 0 0 0 0 0 0 0 0 0 0 0 0
15 14 18 9 7 1 0 0 0 0 0 0 0 0 0 0 0 0 0 0 0 0 0 0 0 0 0 0 0 0 0 0 0 0 0 0 0 0 0 0 0 0 0 0 0 0 0
16 21 16 10 5 0 0 0 0 0 0 0 0 0 0 0 0 0 0 0 0 0 0 0 0 0 0 0 0 0 0 0 0 0 0 0 0 0 0 0 0 0 0 0 0 0 0
19 25 15 10 4 1 0 0 0 0 0 0 0 0 0 0 0 0 0 0 0 0 0 0 0 0 0 0 0 0 0 0 0 0 0 0 0 0 0 0 0 0 0 0 0 0 0
20 22 14 10 7 9 0 0 0 0 0 0 0 0 0 0 0 0 0 0 0 0 0 0 0 0 0 0 0 0 0 0 0 0 0 0 0 0 0 0 0 0 0 0 0 0 0
CIN
-0 -0 -0 -0 -0 -0 -0 -0 -0 -0 -0 -0 -0 -0 -0 -0 -0 -0 -0 -0 -0 -0 -0 -0 -0 -0 -0 -0 -0 -0 -0 -0 -0 -0 -0 -0 -0 -0 -0 -0 -0 -0 -0 -0 -0 -0 -0
-0 -0 -0 -0 -0 -0 -0 -0 -0 -0 -0 -0 -0 -0 -0 -0 -0 -0 -0 -0 -0 -0 -0 -0 -0 -0 -0 -0 -0 -0 -0 -0 -0 -0 -0 -0 -0 -0 -0 -0 -0 -0 -0 -0 -0 -0 -0
-0 -0 -0 -0 -0 -0 -0 -0 -0 -0 -0 -0 -0 -0 -0 -0 -0 -0 -0 -0 -0 -0 -0 -0 -0 -0 -0 -0 -0 -0 -0 -0 -0 -0 -0 -0 -0 -0 -0 -0 -0 -0 -0 -0 -0 -0 -0
-0 -0 -0 -0 -0 -0 -0 -0 -0 -0 -0 -0 -0 -0 -0 -0 -0 -0 -0 -0 -0 -0 -0 -0 -0 -0 -0 -0 -0 -0 -0 -0 -0 -0 -0 -0 -0 -0 -0 -0 -0 -0 -0 -0 -0 -0 -0
-0 -0 -0 -0 -0 -0 -0 -0 -0 -0 -0 -0 -0 -0 -0 -0 -0 -0 -0 -0 -0 -0 -0 -0 -0 -0 -0 -0 -0 -0 -0 -0 -0 -0 -0 -0 -0 -0 -0 -0 -0 -0 -0 -0 -0 -0 -0
-0 -0 -0 -0 -0 -0 -0 -0 -0 -0 -0 -0 -0 -0 -0 -0 -0 -0 -0 -0 -0 -0 -0 -0 -0 -0 -0 -0 -0 -0 -0 -0 -0 -0 -0 -0 -0 -0 -0 -0 -0 -0 -0 -0 -0 -0 -0
-0 -0 -0 -0 -0 -0 -0 -0 -0 -0 -0 -0 -0 -0 -0 -0 -0 -0 -0 -0 -0 -0 -0 -0 -0 -0 -0 -0 -0 -0 -0 -0 -0 -0 -0 -0 -0 -0 -0 -0 -0 -0 -0 -0 -0 -0 -0
-0 -0 -0 -0 -0 -0 -0 -0 -0 -0 -0 -0 -0 -0 -0 -0 -0 -0 -0 -0 -0 -0 -0 -0 -0 -0 -0 -0 -0 -0 -0 -0 -0 -0 -0 -0 -0 -0 -0 -0 -0 -0 -0 -0 -0 -0 -0
-0 -0 -0 -0 -0 -0 -0 -0 -0 -0 -0 -0 -0 -0 -0 -0 -0 -0 -0 -0 -0 -0 -0 -0 -0 -0 -0 -0 -0 -0 -0 -0 -0 -0 -0 -0 -0 -0 -0 -0 -0 -0 -0 -0 -0 -0 -0
-0 -0 -0 -0 -0 -0 -0 -0 -0 -0 -0 -0 -0 -0 -0 -0 -0 -0 -0 -0 -0 -0 -0 -0 -0 -0 -0 -0 -0 -0 -0 -0 -0 -0 -0 -0 -0 -0 -0 -0 -0 -0 -0 -0 -0 -0 -0
-0 -0 -0 -0 -0 -0 -0 -0 -0 -0 -0 -0 -0 -0 -0 -0 -0 -0 -0 -0 -0 -0 -0 -0 -0 -0 -0 -0 -0 -0 -0 -0 -0 -0 -0 -0 -0 -0 -0 -0 -0 -0 -0 -0 -0 -0 -0
-0 -0 -0 -0 -0 -0 -0 -0 -0 -0 -0 -0 -0 -0 -0 -0 -0 -0 -0 -0 -0 -0 -0 -0 -0 -0 -0 -0 -0 -0 -0 -0 -0 -0 -0 -0 -0 -0 -0 -0 -0 -0 -0 -0 -0 -0 -0
-0 -0 -0 -0 -0 -0 -0 -0 -0 -0 -0 -0 -0 -0 -0 -0 -0 -0 -0 -0 -0 -0 -0 -0 -0 -0 -0 -0 -0 -0 -0 -0 -0 -0 -0 -0 -0 -0 -0 -0 -0 -0 -0 -0 -0 -0 -0
-0 -0 -0 -0 -0 -0 -0 -0 -0 -0 -0 -0 -0 -0 -0 -0 -0 -0 -0 -0 -0 -0 -0 -0 -0 -0 -0 -0 -0 -0 -0 -0 -0 -0 -0 -0 -0 -0 -0 -0 -0 -0 -0 -0 -0 -0 -0
-0 -0 -0 -0 -0 -0 -0 -0 -0 -0 -0 -0 -0 -0 -0 -0 -0 -0 -0 -0 -0 -0 -0 -0 -0 -0 -0 -0 -0 -0 -0 -0 -0 -0 -0 -0 -0 -0 -0 -0 -0 -0 -0 -0 -0 -0 -0
-0 -0 -0 -0 -0 -0 -0 -0 -0 -0 -0 -0 -0 -0 -0 -0 -0 -0 -0 -0 -0 -0 -0 -0 -0 -0 -0 -0 -0 -0 -0 -0 -0 -0 -0 -0 -0 -0 -0 -0 -0 -0 -0 -0 -0 -0 -0
-0 -0 -0 -0 -0 -0 -0 -0 -0 -0 -0 -0 -0 -0 -0 -0 -0 -0 -0 -0 -0 -0 -0 -0 -0 -0 -0 -0 -0 -0 -0 -0 -0 -0 -0 -0 -0 -0 -0 -0 -0 -0 -0 -0 -0 -0 -0
-0 -0 -0 -0 -0 -0 -0 -0 -0 -0 -0 -0 -0 -0 -0 -0 -0 -0 -0 -0 -0 -0 -0 -0 -0 -0 -0 -0 -0 -0 -0 -0 -0 -0 -0 -0 -0 -0 -0 -0 -0 -0 -0 -0 -0 -0 -0
-0 -0 -0 -0 -0 -0 -0 -0 -0 -0 -0 -0 -0 -0 -0 -0 -0 -0 -0 -0 -0 -0 -0 -0 -0 -0 -0 -0 -0 -0 -0 -0 -0 -0 -0 -0 -0 -0 -0 -0 -0 -0 -0 -0 -0 -0 -0
-0 -0 -0 -0 -0 -0 -0 -0 -0 -0 -0 -0 -0 -0 -0 -0 -0 -0 -0 -0 -0 -0 -0 -0 -0 -0 -0 -0 -0 -0 -0 -0 -0 -0 -0 -0 -0 -0 -0 -0 -0 -0 -0 -0 -0 -0 -0
-0 -0 -0 -0 -0 -0 -0 -0 -0 -0 -0 -0 -0 -0 -0 -0 -0 -0 -0 -0 -0 -0 -0 -0 -0 -0 -0 -0 -0 -0 -0 -0 -0 -0 -0 -0 -0 -0 -0 -0 -0 -0 -0 -0 -0 -0 -0
-0 -0 -0 -0 -0 -0 -0 -0 -0 -0 -0 -0 -0 -0 -0 -0 -0 -0 -0 -0 -0 -0 -0 -0 -0 -0 -0 -0 -0 -0 -0 -0 -0 -0 -0 -0 -0 -0 -0 -0 -0 -0 -0 -0 -0 -0 -0
-0 -0 -0 -0 -0 -0 -0 -0 -0 -0 -0 -0 -0 -0 -0 -0 -0 -0 -0 -0 -0 -0 -0 -0 -0 -0 -0 -0 -0 -0 -0 -0 -0 -0 -0 -0 -0 -0 -0 -0 -0 -0 -0 -0 -0 -0 -0
-0 -0 -0 -0 -0 -0 -0 -0 -0 -0 -0 -0 -0 -0 -0 -0 -0 -0 -0 -0 -0 -0 -0 -0 -0 -0 -0 -0 -0 -0 -0 -0 -0 -0 -0 -0 -0 -0 -0 -0 -0 -0 -0 -0 -0 -0 -0
-0 -0 -0 -0 -0 -0 -0 -0 -0 -0 -0 -0 -0 -0 -0 -0 -0 -0 -0 -0 -0 -0 -0 -0 -0 -0 -0 -0 -0 -0 -0 -0 -0 -0 -0 -0 -0 -0 -0 -0 -0 -0 -0 -0 -0 -0 -0
-0 -0 -0 -0 -0 -0 -0 -0 -0 -0 -0 -0 -0 -0 -0 -0 -0 -0 -0 -0 -0 -0 -0 -0 -0 -0 -0 -0 -0 -0 -0 -0 -0 -0 -0 -0 -0 -0 -0 -0 -0 -0 -0 -0 -0 -0 -0
-0 -0 -0 -0 -0 -0 -0 -0 -0 -0 -0 -0 -0 -0 -0 -0 -0 -0 -0 -0 -0 -0 -0 -0 -0 -0 -0 -0 -0 -0 -0 -0 -0 -0 -0 -0 -0 -0 -0 -0 -0 -0 -0 -0 -0 -0 -0
-0 -0 -0 -0 -0 -0 -0 -0 -0 -0 -0 -0 -0 -0 -0 -0 -0 -0 -0 -0 -0 -0 -0 -0 -0 -0 -0 -0 -0 -0 -0 -0 -0 -0 -0 -0 -0 -0 -0 -0 -0 -0 -0 -0 -0 -0 -0
-0 -0 -0 -0 -0 -0 -0 -0 -0 -0 -0 -0 -0 -0 -0 -0 -0 -0 -0 -0 -0 -0 -0 -0 -0 -0 -0 -0 -0 -0 -0 -0 -0 -0 -0 -0 -0 -0 -0 -0 -0 -0 -0 -0 -0 -0 -0
Wind_Speed
7 7 7 8 9 10 10 11 11 11 12 12 12 12 11 11 11 10 11 10 10 7 7 7 7 7 3 5 2 5 10 9 4 4 4 3 4 1 3 2 2 2 1 3 1 4 3
6 6 6 7 8 9 10 10 11 11 12 12 13 13 12 13 12 12 12 11 10 7 5 4 4 4 2 2 4 6 7 5 4 3 4 5 2 1 3 1 2 1 2 5 3 2 1
5 5 5 7 8 8 9 10 11 11 12 12 13 13 13 14 14 13 13 11 10 6 5 6 5 1 6 3 3 6 4 2 4 2 2 2 1 1 1 2 2 0 4 5 3 0 2
4 4 5 7 8 9 10 10 10 11 12 13 14 14 14 15 14 13 12 10 8 6 5 4 5 2 2 3 3 3 6 3 4 3 2 0 2 2 2 1 6 3 5 3 3 4 2
2 2 4 6 8 9 10 11 11 12 13 14 14 15 15 16 15 14 13 12 4 4 5 5 1 3 1 5 2 3 2 1 4 2 3 2 3 3 5 4 5 6 2 1 2 1 3
3 1 3 5 7 9 10 11 12 12 13 14 15 15 15 16 17 15 13 4 3 3 1 1 1 5 2 1 3 4 3 2 2 2 3 5 5 3 4 4 4 3 2 1 1 3 3
4 2 1 3 5 7 9 11 12 13 14 14 15 15 15 15 15 13 6 3 6 4 8 3 1 1 2 4 3 5 4 4 2 5 2 3 5 2 4 4 1 1 1 3 3 3 3
5 3 1 3 5 6 8 9 11 12 14 15 15 16 16 15 15 8 4 6 1 2 2 2 1 2 1 2 3 5 6 3 3 2 2 6 2 3 1 1 0 1 1 4 3 2 1
7 4 2 3 4 7 9 10 11 12 13 14 16 16 15 15 8 6 5 3 2 1 4 1 0 1 1 2 1 5 4 2 3 2 2 4 1 3 2 1 2 3 5 3 4 5 2
9 6 4 3 5 7 9 10 12 12 13 14 15 16 16 14 6 1 3 4 2 0 6 2 2 2 2 1 3 2 4 2 4 1 1 3 3 2 1 2 3 3 2 2 2 3 4
10 8 6 4 4 6 8 10 11 13 14 14 14 14 15 11 4 4 1 3 1 3 5 1 1 1 1 2 1 4 3 3 2 2 3 5 1 1 1 2 2 5 1 2 3 4 4
11 9 7 5 4 6 8 9 11 12 13 14 13 13 12 4 3 1 2 1 3 9 6 1 1 1 2 2 1 1 5 8 1 2 1 5 4 2 2 1 1 2 2 4 4 3 2
13 11 9 6 5 5 7 9 10 12 13 14 13 12 4 1 1 1 1 3 7 6 1 2 1 1 1 2 1 4 5 7 1 3 3 5 2 4 2 2 2 4 5 5 6 3 7
15 13 11 8 5 5 6 8 10 12 14 14 14 7 3 2 1 2 3 6 2 3 5 1 2 1 3 3 1 3 3 1 3 2 2 1 6 2 5 2 2 1 4 5 6 4 5
16 14 12 9 6 4 6 7 9 11 13 14 9 3 2 3 1 3 6 4 8 5 2 3 2 1 2 1 1 2 1 2 1 2 4 3 5 5 4 2 2 2 3 1 1 0 3
16 16 14 12 8 5 5 8 8 9 11 11 2 2 2 5 1 4 6 6 4 1 2 2 6 4 4 4 3 3 3 2 2 1 1 1 5 2 5 1 3 2 3 3 1 4 7
18 18 16 13 9 5 4 5 7 9 9 6 3 3 3 4 3 6 4 7 3 1 2 3 3 3 4 4 5 4 3 1 3 3 2 2 1 4 1 2 1 4 1 4 0 3 5
20 19 17 14 10 6 4 5 6 8 7 5 4 1 3 3 3 1 3 2 2 4 2 2 3 2 4 3 4 4 5 1 0 3 4 1 4 5 6 1 1 1 3 3 4 4 2
22 21 18 15 11 8 4 4 4 6 3 3 3 1 2 4 3 2 1 1 2 1 1 3 4 2 2 4 4 3 4 1 2 2 5 5 2 4 2 2 1 3 2 4 4 3 6
23 22 20 15 13 8 5 3 3 4 2 2 2 1 4 4 1 5 4 3 3 2 1 1 2 2 3 3 1 4 4 3 2 2 3 1 1 6 7 2 2 3 3 3 4 3 5
23 23 20 18 14 9 6 3 2 3 5 2 2 3 2 2 3 3 4 3 3 3 1 1 1 4 6 6 4 4 3 2 2 2 2 3 5 2 3 4 4 5 7 8 9 8 8
23 24 23 19 14 10 3 4 2 2 9 2 4 4 3 1 1 6 3 5 7 2 4 2 2 1 1 2 1 4 5 4 5 2 4 1 2 1 3 7 7 9 7 9 9 5 6
24 25 24 21 17 13 9 4 5 4 6 2 1 2 4 2 2 4 4 4 6 8 1 3 2 3 2 3 3 3 4 3 3 7 6 5 2 2 4 3 5 7 2 2 1 2 2
25 26 25 23 18 13 8 7 7 8 9 2 2 3 4 3 2 2 3 2 2 1 6 2 3 4 2 2 4 4 3 2 2 2 2 5 4 3 3 3 2 3 1 3 2 2 1
26 27 26 22 19 15 12 9 9 6 13 2 2 2 3 3 2 3 5 5 5 5 4 3 4 2 0 3 2 1 2 1 2 5 6 3 4 0 2 3 4 1 3 2 4 5 2
28 27 25 22 18 16 11 5 6 3 11 3 1 0 3 7 0 3 3 2 3 3 3 2 2 1 3 2 1 1 3 2 1 2 4 5 4 4 2 2 5 5 3 3 4 5 4
28 27 24 22 17 12 8 6 5 9 8 3 2 2 4 6 3 3 2 3 4 3 3 2 2 2 3 2 1 2 3 1 2 3 3 2 1 6 6 5 4 3 2 3 5 7 3
27 24 23 21 19 15 11 9 8 13 13 4 2 3 3 5 5 3 4 2 3 3 4 4 4 1 2 3 2 2 2 1 1 1 1 4 3 3 2 1 8 3 2 3 2 2 3
25 23 22 21 16 12 9 9 12 13 12 5 4 3 6 6 5 2 5 4 4 1 5 2 3 2 2 4 2 2 1 2 2 3 3 2 3 3 3 3 1 2 3 1 1 2 4
Wind_Direction
68 51 41 32 25 20 13 10 3 359 356 359 357 352 349 348 348 344 344 343 338 339 344 348 348 346 349 48 25 320 341 340 0 9 43 40 56 37 106 350 18 82 342 334 343 330 300
65 58 42 29 24 16 11 5 0 358 357 355 353 349 347 346 344 342 340 338 334 326 326 330 342 329 95 106 287 326 334 344 12 36 30 35 113 154 117 121 123 257 293 291 317 338 212
63 52 36 21 17 11 6 3 358 355 355 353 352 348 346 344 344 342 337 337 335 323 321 331 343 17 64 164 316 317 348 326 343 30 47 29 48 138 103 75 334 359 337 345 25 135 131
64 37 22 15 7 2 359 360 357 355 354 352 351 349 346 343 343 337 332 330 327 320 331 335 335 62 82 285 296 354 347 4 4 31 69 12 11 96 76 267 20 52 51 55 343 136 336
102 56 24 10 2 360 357 357 356 355 354 351 351 349 346 341 338 334 329 322 311 314 308 312 13 79 63 317 35 302 23 351 314 12 9 15 47 74 25 71 12 1 202 172 353 309 138
154 111 25 11 3 358 356 355 354 354 354 352 350 348 345 342 340 333 325 303 324 352 5 292 40 43 343 312 315 331 328 11 55 0 40 57 50 58 39 78 228 202 183 226 248 258 5
180 183 35 5 4 356 353 353 352 353 351 350 348 345 342 340 338 338 3 29 24 0 38 63 312 52 353 315 344 354 357 351 23 53 96 23 59 248 235 196 83 48 304 275 301 307 222
211 209 247 338 347 348 351 351 352 350 351 350 347 343 340 337 337 352 68 71 84 171 40 20 22 44 1 351 350 348 2 37 12 71 73 25 195 194 213 168 98 178 268 257 260 23 183
203 221 260 313 335 344 347 346 347 349 349 350 346 341 339 333 333 35 65 81 327 227 110 349 51 67 302 28 48 329 31 344 52 16 36 157 231 1 51 323 302 231 188 188 216 336 17
202 215 223 291 325 340 344 343 344 347 349 349 347 343 340 326 51 319 50 318 348 58 70 316 19 11 11 70 33 352 14 45 19 100 341 241 318 59 69 267 133 302 169 127 182 99 216
205 215 223 247 302 326 339 341 344 345 346 347 346 346 348 30 149 63 248 305 319 51 23 261 265 252 62 84 220 6 3 34 91 343 68 259 332 343 275 225 146 229 307 255 214 205 91
205 212 221 243 289 317 331 339 342 343 342 342 341 342 344 10 52 142 294 8 55 44 267 219 33 65 53 25 35 200 31 32 87 95 349 255 284 236 218 56 103 340 323 48 48 109 285
212 212 214 226 263 305 327 334 340 340 340 339 336 336 354 95 169 243 69 48 38 127 10 203 235 93 106 207 350 40 21 16 50 40 338 328 284 328 50 9 51 73 53 330 334 356 234
208 214 213 219 248 294 318 330 339 341 340 335 329 329 334 80 204 114 55 47 127 225 200 105 98 58 223 156 331 48 69 63 36 58 77 120 319 7 359 86 157 117 161 171 257 233 265
199 209 211 219 231 269 307 326 336 343 342 336 335 347 15 323 176 78 81 78 212 193 119 144 71 141 256 243 184 85 53 191 115 25 162 138 275 317 54 355 67 154 191 131 294 252 347
194 203 206 208 224 237 296 317 333 343 348 350 42 44 322 312 22 61 82 225 187 148 143 112 193 183 220 192 168 170 174 139 148 72 61 164 305 5 306 357 38 187 139 72 18 259 253
194 199 201 207 215 225 265 306 331 337 352 3 41 34 288 347 49 47 176 210 171 148 154 162 199 222 213 186 177 191 194 112 164 150 82 108 101 276 293 24 53 358 352 38 309 175 229
191 196 198 200 204 213 254 302 329 337 350 65 109 15 316 8 51 1 171 218 139 164 30 133 108 181 207 170 185 220 215 142 191 149 147 170 153 253 245 339 174 222 177 148 150 250 267
187 191 193 196 198 202 222 280 327 338 20 121 108 215 331 93 206 224 277 335 31 124 163 156 159 170 166 189 208 169 171 54 150 143 159 177 200 324 307 5 10 94 146 141 117 104 205
187 185 186 191 192 190 225 245 326 328 124 63 97 353 329 47 78 139 154 215 208 340 98 94 145 118 127 183 265 184 170 178 71 86 95 37 189 214 225 164 114 242 199 200 153 147 250
188 178 180 186 188 172 213 243 14 322 148 110 56 244 178 246 273 161 152 121 145 215 344 224 285 228 171 184 196 200 112 111 48 173 92 138 229 231 276 261 235 243 238 223 218 226 223
184 178 175 182 176 163 217 286 354 136 130 92 160 152 15 132 77 119 176 219 188 165 134 248 241 153 199 220 205 175 133 179 191 120 145 152 267 67 282 266 276 279 247 243 251 264 275
180 177 174 175 176 180 189 224 273 237 148 132 136 14 110 348 114 121 216 190 197 135 51 62 212 121 143 147 101 95 78 78 174 158 174 161 162 84 270 347 328 290 246 359 56 94 137
175 175 175 173 177 182 188 212 224 227 191 128 185 115 113 212 157 207 133 76 126 124 143 51 58 119 184 118 95 80 63 110 169 183 146 147 139 150 270 10 250 266 124 130 170 205 280
179 177 176 174 173 175 187 208 208 214 201 119 145 151 133 118 127 87 101 116 77 51 68 69 28 38 209 75 66 32 331 301 212 204 190 144 138 272 219 201 311 287 317 103 100 286 207
177 178 175 169 170 177 175 178 184 155 162 93 75 100 105 124 115 344 121 150 135 116 76 83 72 90 62 61 72 247 255 249 264 110 49 99 88 135 113 211 260 228 134 71 100 287 250
175 177 170 161 163 162 175 178 138 136 148 108 64 341 86 101 9 349 132 149 111 87 101 120 125 40 23 101 139 204 269 288 250 203 191 129 80 191 225 248 267 202 313 137 78 248 271
172 172 163 154 154 161 167 166 142 152 144 97 88 355 83 103 40 4 8 76 104 127 139 183 80 346 74 97 176 205 140 243 309 314 251 185 167 202 97 269 268 21 317 217 227 267 299
168 164 158 153 149 145 162 144 146 163 146 132 96 79 59 68 130 139 100 57 324 11 121 27 138 131 141 102 158 96 183 74 87 259 355 281 182 186 181 237 240 358 84 6 26 305 300